Flag for United Kingdom Weather past 2 weeks in Liverpool, England, United Kingdom

Now
66 °F

Scattered clouds.


Feels Like: 66 °F
Forecast: 58 / 70 °F
Wind: 7 mph from Southeast

Location: Liverpool Airport

Current Time: Sep 18, 2014 at 1:23:33 PM

Latest Report: Sep 18, 2014 at 12:50 PM


Visibility: 4 mi

Pressure: 29.86 "Hg

Humidity: 78%

Dew point: 59 °F

Location of LiverpoolLocation

Historic Weather in Liverpool — Graph

°F

Liverpool temperature yesterday

Maximum temperature yesterday: 70 °F (at 1:50 PM)
Minimum temperature yesterday: 54 °F (at 3:50 AM)
Average temperature yesterday: 61 °F

Past Weeks' High & Low Weather Summary

 TemperatureHumidityPressure
High72 °F (Sep 16, 2:20 PM)100% (Sep 5, 7:20 AM)30.36 "Hg (Sep 5, 7:20 AM)
Low48 °F (Sep 10, 5:50 AM)50% (Sep 16, 2:20 PM)29.86 "Hg (Sep 18, 2:50 AM)
Average60 °F78%30.11 "Hg
* Reported Sep 3 12:20 PM — Sep 18 12:20 PM, Liverpool, Weather by CustomWeather, © 2014

Note: Actual official high and low records may vary slightly from our data, if they occured in-between our weather recording intervals... More about our weather records

Advertising

Liverpool weather history for previous 24 hours

 ConditionsComfort  
Time TempWeatherWind HumidityBarometerVisibility
12:20 PM
Sep 18
66 °FPartly sunny.9 mph78%29.86 "Hg4 mi
11:50 AM64 °FPartly sunny.9 mph78%29.86 "Hg4 mi
11:20 AM64 °FPartly sunny.9 mph78%29.86 "Hg4 mi
10:50 AM63 °FPartly sunny.9 mph83%29.89 "Hg4 mi
10:20 AM63 °FPartly sunny.9 mph83%29.89 "Hg4 mi
9:50 AM63 °FPartly sunny.8 mph83%29.89 "Hg4 mi
9:20 AM63 °FPartly sunny.8 mph83%29.89 "Hg4 mi
8:50 AM61 °FPartly sunny.9 mph88%29.86 "Hg4 mi
8:20 AM61 °FPartly sunny.10 mph88%29.86 "Hg4 mi
7:50 AM61 °FPartly sunny.10 mph88%29.86 "Hg4 mi
7:20 AM61 °FPassing clouds.12 mph88%29.86 "Hg4 mi
6:50 AM61 °FPassing clouds.12 mph88%29.86 "Hg5 mi
6:20 AM61 °FPassing clouds.9 mph88%29.86 "Hg5 mi
5:50 AM61 °FPassing clouds.8 mph94%29.86 "Hg5 mi
5:20 AM61 °FPassing clouds.8 mph94%29.86 "Hg4 mi
4:50 AM61 °FPassing clouds.8 mph94%29.86 "Hg4 mi
4:20 AM61 °FPassing clouds.6 mph94%29.86 "Hg4 mi
3:50 AM61 °FPassing clouds.7 mph94%29.86 "Hg4 mi
3:20 AM61 °FPassing clouds.8 mph88%29.86 "Hg4 mi
2:50 AM61 °FPassing clouds.8 mph94%29.86 "Hg4 mi
2:20 AM61 °FPassing clouds.8 mph88%29.89 "Hg4 mi
1:50 AM59 °FPassing clouds.8 mph94%29.89 "Hg4 mi
12:50 AM59 °FPassing clouds.9 mph88%29.89 "Hg4 mi
12:20 AM59 °FPassing clouds.8 mph94%29.89 "Hg4 mi
11:20 PM
Sep 17
59 °FPassing clouds.9 mph94%29.89 "Hg5 mi
10:50 PM59 °FPassing clouds.9 mph94%29.89 "HgN/A
9:50 PM59 °FPassing clouds.9 mph94%29.92 "HgN/A
9:20 PM59 °FPassing clouds.8 mph88%29.92 "Hg6 mi
8:50 PM61 °FPassing clouds.9 mph88%29.92 "Hg6 mi
8:20 PM61 °FPassing clouds.8 mph88%29.92 "Hg6 mi
7:50 PM61 °FPassing clouds.8 mph83%29.89 "Hg6 mi
7:20 PM63 °FPassing clouds.9 mph83%29.89 "HgN/A
6:50 PM64 °FPassing clouds.10 mph78%29.89 "HgN/A
6:20 PM64 °FPassing clouds.9 mph78%29.89 "HgN/A
5:50 PM66 °FPassing clouds.10 mph73%29.89 "HgN/A
5:20 PM68 °FPassing clouds.12 mph64%29.89 "HgN/A
4:50 PM68 °FPassing clouds.13 mph69%29.89 "HgN/A
4:20 PM70 °FPassing clouds.13 mph64%29.89 "HgN/A
3:50 PM70 °FPassing clouds.16 mph64%29.89 "HgN/A
3:20 PM70 °FPassing clouds.12 mph64%29.89 "HgN/A
2:50 PM70 °FPassing clouds.10 mph64%29.92 "HgN/A
2:20 PM70 °FPassing clouds.8 mph60%29.92 "HgN/A
1:50 PM70 °FPassing clouds.6 mph60%29.92 "HgN/A
1:20 PM68 °FPassing clouds.6 mph64%29.92 "HgN/A
Weather by CustomWeather, © 2014

See weather overviewHow to use our weather pages